Location: Arrodets-la-Barthe
(43.0306°N, 0.2829°E)
Time: 11:47:16
(UTC+00:00)

Iridium 4 Rocket - Pass Details

Date: 29 May 2022
Orbit: 585 x 902 km, 86.9° (Epoch: 01 July)

Event Time Altitude Azimuth Distance (km) Brightness Sun altitude
Rises 00:00:11 0° 338° (NNW) 3,022 7.7 -25.4°
Reaches altitude 10° 00:03:09 10° 318° (NW) 2,163 6.4 -25.4°
Maximum altitude 00:06:03 16° 280° (W) 1,832 5.5 -25.3°
Enters shadow 00:07:00 15° 266° (W) 1,894 5.5 -25.3°
